Location: Risskov
(56.1972°N, 10.2480°E)
Time: 13:04:37
(UTC+00:00)

Resurs 1-4 Rocket - Pass Details

Date: 05 July 2020
Orbit: 800 x 814 km, 98.6° (Epoch: 06 August)

Event Time Altitude Azimuth Distance (km) Brightness Sun altitude
Rises 23:36:33 0° 24° (NNE) 3,354 6.8 -11.1°
Reaches altitude 10° 23:39:41 10° 43° (NE) 2,416 5.4 -11.1°
Maximum altitude 23:43:19 18° 86° (E) 1,888 4.1 -11.0°
Drops below altitude 10° 23:46:57 10° 129° (SE) 2,401 4.2 -11.0°
Enters shadow 23:48:44 - 142° (SE) 2,911 4.6 -11.0°
